| time (UTC) | temp C | wind direction | speed KPH | gust KPH | rain 1hr cm | rain 24hr cm | rain mn cm | humidity % | barometer mb |
| 20260506124507 | 10 | 293 | 0.0 | 1.6 | 0.00 | 0.00 | 0.00 | 93 | 1018.7 |
| 20260506123028 | 10 | 293 | 0.0 | 1.6 | 0.00 | 0.00 | 0.00 | 93 | 1018.7 |
| 20260506121510 | 10 | 211 | 0.0 | 1.6 | 0.00 | 0.00 | 0.00 | 93 | 1018.6 |
| 20260506120019 | 10 | 269 | 0.0 | 3.2 | 0.00 | 0.00 | 0.00 | 93 | 1018.6 |
| 20260506114526 | 10 | 231 | 0.0 | 1.6 | 0.00 | 0.00 | 0.00 | 93 | 1018.6 |
| 20260506113025 | 10 | 262 | 0.0 | 1.6 | 0.00 | 0.00 | 0.00 | 93 | 1018.6 |
| 20260506111510 | 10 | 264 | 0.0 | 1.6 | 0.00 | 0.00 | 0.00 | 93 | 1018.4 |
| 20260506110014 | 10 | 271 | 0.0 | 1.6 | 0.00 | 0.00 | 0.00 | 93 | 1018.3 |
| 20260506104517 | 10 | 259 | 0.0 | 1.6 | 0.00 | 0.00 | 0.00 | 93 | 1018.2 |
| 20260506103027 | 10 | 269 | 0.0 | 1.6 | 0.00 | 0.00 | 0.00 | 93 | 1018.1 |
| 20260506101518 | 10 | 233 | 0.0 | 1.6 | 0.00 | 0.00 | 0.00 | 93 | 1017.9 |
| 20260506100015 | 11 | 243 | 0.0 | 1.6 | 0.00 | 0.00 | 0.00 | 92 | 1017.8 |
| 20260506094514 | 11 | 256 | 0.0 | 1.6 | 0.00 | 0.00 | 0.00 | 92 | 1017.8 |
| 20260506093020 | 11 | 256 | 0.0 | 1.6 | 0.00 | 0.00 | 0.00 | 92 | 1017.8 |
| 20260506091522 | 11 | 255 | 0.0 | 1.6 | 0.00 | 0.00 | 0.00 | 92 | 1017.8 |
| 20260506090029 | 11 | 232 | 0.0 | 1.6 | 0.00 | 0.00 | 0.00 | 92 | 1017.7 |
| 20260506084521 | 11 | 231 | 0.0 | 1.6 | 0.00 | 0.00 | 0.00 | 92 | 1017.6 |
| 20260506083018 | 11 | 219 | 0.0 | 0.0 | 0.00 | 0.00 | 0.00 | 91 | 1017.7 |
| 20260506081521 | 11 | 302 | 0.0 | 1.6 | 0.00 | 0.00 | 0.00 | 91 | 1017.6 |
| 20260506073028 | 11 | 248 | 0.0 | 1.6 | 0.00 | 0.00 | 0.00 | 91 | 1017.5 |
| 20260506071518 | 11 | 250 | 0.0 | 1.6 | 0.00 | 0.00 | 0.00 | 91 | 1017.3 |
| 20260506061511 | 11 | 271 | 0.0 | 1.6 | 0.00 | 0.00 | 0.00 | 91 | 1016.9 |
| 20260506044513 | 11 | 255 | 0.0 | 1.6 | 0.00 | 0.00 | 0.00 | 89 | 1016.6 |
| 20260506043014 | 11 | 255 | 0.0 | 1.6 | 0.00 | 0.00 | 0.00 | 90 | 1016.5 |
| 20260506041506 | 11 | 270 | 0.0 | 1.6 | 0.00 | 0.00 | 0.00 | 90 | 1016.3 |
| 20260506040019 | 11 | 270 | 0.0 | 1.6 | 0.00 | 0.00 | 0.00 | 90 | 1016.0 |
| 20260506034523 | 11 | 328 | 0.0 | 1.6 | 0.00 | 0.00 | 0.00 | 90 | 1015.8 |
| 20260506033017 | 11 | 329 | 0.0 | 1.6 | 0.00 | 0.00 | 0.00 | 90 | 1015.5 |
| 20260506031514 | 11 | 11 | 0.0 | 1.6 | 0.00 | 0.00 | 0.00 | 89 | 1015.5 |
| 20260506030024 | 11 | 349 | 0.0 | 1.6 | 0.00 | 0.00 | 0.00 | 90 | 1015.4 |
| 20260506024515 | 11 | 223 | 0.0 | 3.2 | 0.00 | 0.00 | 0.00 | 90 | 1015.3 |
| 20260506023016 | 12 | 278 | 0.0 | 3.2 | 0.00 | 0.00 | 0.00 | 90 | 1015.2 |
| 20260506021524 | 12 | 283 | 0.0 | 1.6 | 0.00 | 0.00 | 0.00 | 89 | 1015.1 |
| 20260506020024 | 12 | 345 | 0.0 | 3.2 | 0.00 | 0.00 | 0.00 | 89 | 1015.0 |
| 20260506014508 | 12 | 333 | 0.0 | 3.2 | 0.00 | 0.00 | 0.00 | 90 | 1014.9 |
| 20260506013018 | 12 | 24 | 1.6 | 3.2 | 0.00 | 0.00 | 0.00 | 89 | 1015.0 |
| 20260506011510 | 12 | 360 | 1.6 | 4.8 | 0.00 | 0.00 | 0.00 | 89 | 1015.0 |
| 20260506010026 | 12 | 345 | 1.6 | 4.8 | 0.00 | 0.00 | 0.00 | 87 | 1014.9 |
| 20260506004528 | 12 | 323 | 1.6 | 6.4 | 0.00 | 0.00 | 0.00 | 87 | 1014.8 |
| 20260506003012 | 12 | 342 | 0.0 | 4.8 | 0.00 | 0.00 | 0.00 | 87 | 1014.9 |
| 20260506001521 | 12 | 311 | 1.6 | 8.0 | 0.00 | 0.00 | 0.00 | 87 | 1014.7 |
| 20260506000017 | 12 | 307 | 1.6 | 8.0 | 0.00 | 0.00 | 0.00 | 86 | 1014.8 |
| 20260505234512 | 13 | 352 | 1.6 | 4.8 | 0.00 | 0.00 | 0.00 | 84 | 1014.8 |
| 20260505233026 | 13 | 281 | 0.0 | 6.4 | 0.00 | 0.00 | 0.00 | 83 | 1014.9 |
| 20260505231512 | 13 | 274 | 1.6 | 6.4 | 0.00 | 0.00 | 0.00 | 81 | 1014.8 |
| 20260505230036 | 13 | 350 | 1.6 | 6.4 | 0.00 | 0.00 | 0.00 | 82 | 1014.9 |
| 20260505224519 | 13 | 358 | 1.6 | 6.4 | 0.00 | 0.00 | 0.00 | 82 | 1014.9 |
| 20260505223017 | 13 | 250 | 1.6 | 8.0 | 0.00 | 0.00 | 0.00 | 79 | 1015.0 |
| 20260505221533 | 13 | 247 | 1.6 | 4.8 | 0.00 | 0.00 | 0.00 | 78 | 1015.2 |
| 20260505220013 | 14 | 341 | 1.6 | 6.4 | 0.00 | 0.00 | 0.00 | 78 | 1015.2 |
| 20260505214520 | 14 | 257 | 1.6 | 6.4 | 0.00 | 0.00 | 0.00 | 78 | 1015.0 |
| 20260505213028 | 14 | 264 | 0.0 | 6.4 | 0.00 | 0.00 | 0.00 | 78 | 1015.0 |
| 20260505211522 | 14 | 4 | 1.6 | 6.4 | 0.00 | 0.00 | 0.00 | 81 | 1014.9 |
| 20260505210020 | 14 | 21 | 3.2 | 6.4 | 0.00 | 0.00 | 0.00 | 79 | 1015.0 |
| 20260505204520 | 14 | 15 | 1.6 | 6.4 | 0.00 | 0.03 | 0.00 | 80 | 1015.0 |
| 20260505203032 | 13 | 331 | 1.6 | 4.8 | 0.00 | 0.05 | 0.00 | 81 | 1015.2 |
| 20260505201508 | 13 | 233 | 1.6 | 6.4 | 0.00 | 0.08 | 0.00 | 81 | 1015.2 |
| 20260505200025 | 13 | 254 | 1.6 | 6.4 | 0.00 | 0.13 | 0.00 | 81 | 1015.2 |
| 20260505194506 | 13 | 357 | 1.6 | 4.8 | 0.00 | 0.13 | 0.00 | 82 | 1015.2 |
| 20260505193023 | 13 | 287 | 1.6 | 4.8 | 0.00 | 0.13 | 0.00 | 83 | 1015.0 |
| 20260505191520 | 13 | 186 | 1.6 | 4.8 | 0.00 | 0.13 | 0.00 | 83 | 1015.1 |
| 20260505190008 | 13 | 274 | 3.2 | 6.4 | 0.00 | 0.13 | 0.00 | 83 | 1015.0 |
| 20260505184517 | 13 | 258 | 0.0 | 4.8 | 0.00 | 0.13 | 0.00 | 84 | 1014.8 |
| 20260505183011 | 13 | 356 | 0.0 | 4.8 | 0.00 | 0.13 | 0.00 | 84 | 1014.8 |
| 20260505181508 | 12 | 323 | 0.0 | 6.4 | 0.00 | 0.13 | 0.00 | 85 | 1014.7 |
| 20260505180024 | 12 | 300 | 1.6 | 4.8 | 0.00 | 0.13 | 0.00 | 86 | 1014.7 |
| 20260505174509 | 12 | 255 | 0.0 | 3.2 | 0.00 | 0.13 | 0.00 | 86 | 1014.5 |
| 20260505173034 | 12 | 246 | 1.6 | 4.8 | 0.00 | 0.13 | 0.00 | 86 | 1014.4 |
| 20260505171519 | 12 | 1 | 1.6 | 4.8 | 0.00 | 0.13 | 0.00 | 86 | 1014.4 |
| 20260505170022 | 12 | 12 | 1.6 | 3.2 | 0.00 | 0.13 | 0.00 | 87 | 1014.4 |
| 20260505164527 | 12 | 20 | 1.6 | 4.8 | 0.00 | 0.13 | 0.00 | 87 | 1014.3 |
| 20260505163013 | 12 | 291 | 0.0 | 1.6 | 0.00 | 0.13 | 0.00 | 90 | 1014.2 |
| 20260505161514 | 11 | 264 | 0.0 | 4.8 | 0.00 | 0.13 | 0.00 | 91 | 1014.1 |
| 20260505153014 | 11 | 125 | 0.0 | 1.6 | 0.00 | 0.13 | 0.00 | 94 | 1014.1 |
| 20260505151507 | 11 | 236 | 0.0 | 1.6 | 0.00 | 0.13 | 0.00 | 95 | 1014.0 |